Regional Weather Roundup
Issued by NWS

Home | Current Version | Previous Version | Text Only | Print | Product List | Glossary On
Versions: 1 2 3 4 5 6 7 8 9 10 11 12 13 14 15 16 17 18 19 20 21 22 23 24 25 26 27 28 29 30 31 32 33 34 35 36 37 38 39 40 41 42 43 44 45 46 47 48 49 50
251
ASUS44 KLIX 280112
RWRLA
LOUISIANA REGIONAL WEATHER ROUNDUP
NATIONAL WEATHER SERVICE NEW ORLEANS LA
ISSUED BY NATIONAL WEATHER SERVICE MOBILE AL
800 PM CDT MON JUN 27 2016

NOTE: "FAIR" INDICATES FEW OR NO CLOUDS BELOW 12,000 FEET WITH NO
      SIGNIFICANT WEATHER AND/OR OBSTRUCTIONS TO VISIBILITY.
      SKY/WX - SKY CONDITION AND SIGNIFICANT WEATHER.
      TMP - AIR TEMPERATURE.    DP   - DEWPOINT TEMPERATURE.
      RH  - RELATIVE HUMIDITY.  PRES - PRESSURE.
      HX  - HEAT INDEX.         WCI  - WIND CHILL INDEX.

LAZ040-048-061>063-065-066-069-280200-
SOUTHEAST LOUISIANA


CITY           SKY/WX    TMP DP  RH WIND       PRES   REMARKS
N.O. AUDUBON   NOT AVBL
N.O. INTL ARPT MOCLDY    88  74  63 S6        29.99R HX  96
N.O. LAKEFRONT CLOUDY    89  73  59 SW6       29.99R HX  97
SLIDELL        CLOUDY    84  78  82 N5        30.00R HX  95
BELLE CHASSE   CLOUDY    83  78  85 SW3       29.98R
BATON ROUGE    CLOUDY    87  73  62 N6        29.99R THUNDER
HAMMOND        TSTM      73  70  88 N7G21     30.02R
SALT POINT       N/A     88  76  67 W6        29.95  HX  99
HOUMA          CLOUDY    81  71  71 CALM      29.99R
GALLIANO       PTCLDY    85  76  74 SW5       29.99R
BOOTHVILLE     CLEAR     84  72  67 W5        30.00R
PORT FOURCHON  CLEAR     86  75  70 SW7       29.99R HX  95

$$

LAZ041-044-053-054-280200-
SOUTHWEST LOUISIANA


CITY           SKY/WX    TMP DP  RH WIND       PRES   REMARKS
LAKE CHARLES   CLOUDY    84  75  74 E9        30.03R
LAFAYETTE      PTCLDY    82  73  74 NW9       30.01R
PATTERSON      LGT RAIN  83  77  82 NW6       30.00R
NEW IBERIA     MOCLDY    79  74  84 NW7       30.01R
CHENAULT AIRPK PTCLDY    82  73  74 E6        30.02R
SULPHUR        CLOUDY    84  73  69 NE3       30.02R

$$

LAZ027-028-280200-
CENTRAL LOUISIANA


CITY           SKY/WX    TMP DP  RH WIND       PRES   REMARKS
FORT POLK      CLOUDY    80  74  82 VRB3      30.02R
EAST FORT POLK NOT AVBL
AEXANDRIA INTL CLOUDY    77  74  90 CALM      30.00R
ALEXANDRIA     CLOUDY    79  74  84 W5        30.02R
DERIDDER       CLOUDY    79  76  91 CALM      30.03F
OAKDALE        CLOUDY    78  71  79 CALM      30.02R
PEASON RIDGE   NOT AVBL

$$

LAZ001-002-280200-
NORTHWEST LOUISIANA


CITY           SKY/WX    TMP DP  RH WIND       PRES   REMARKS
SHREVEPORT     CLOUDY    77  75  93 CALM      30.02F
BARKSDALE AFB  MOCLDY    74  74 100 SW3       30.02F
DTN SHREVEPORT CLOUDY    79  72  79 CALM      30.02S
NATCHITOCHES   CLOUDY    81  77  88 CALM      30.01S

$$

LAZ004-006-280200-
NORTHEAST LOUISIANA


CITY           SKY/WX    TMP DP  RH WIND       PRES   REMARKS
MONROE         PTCLDY    82  77  84 NW8       30.00S
BASTROP        PTCLDY    82  74  76 W5        30.00S
RUSTON         CLOUDY    84  78  82 CALM      30.04S HX  95
TALLULAH       CLEAR     87  77  72 N3        29.98R HX  99

$$





USA.gov is the U.S. government's official web portal to all federal, state and local government web resources and services.